AT160 Weather Reports


time (UTC)temp
F
wind
direction
speed
knots
gust
knots
rain 1hr
in
rain 24hr
in
rain mn
in
humidity
%
barometer
mb
20260504015449 50 68 5.2 10.4 0.00 0.00 0.00 52 1018.5
20260504014951 50 326 5.2 10.4 0.00 0.00 0.00 52 1018.5
20260504014450 50 302 5.2 9.6 0.00 0.00 0.00 53 1018.5
20260504013954 50 329 4.3 8.7 0.00 0.00 0.00 52 1018.3
20260504013456 50 325 5.2 9.6 0.00 0.00 0.00 52 1018.3
20260504012954 50 320 5.2 9.6 0.00 0.00 0.00 52 1018.3
20260504012448 49 350 4.3 7.0 0.00 0.00 0.00 54 1018.4
20260504011955 49 322 3.5 7.0 0.00 0.00 0.00 54 1018.4
20260504011641 50 305 3.5 6.1 0.00 0.00 0.00 53 1018.5
20260504011458 49 315 3.5 5.2 0.00 0.00 0.00 54 1018.4
20260504010459 50 325 3.5 6.1 0.00 0.00 0.00 53 1018.5
20260504005954 50 335 3.5 6.1 0.00 0.00 0.00 54 1018.5
20260504005636 51 298 1.7 5.2 0.00 0.00 0.00 51 1018.4
20260504005458 50 328 2.6 6.1 0.00 0.00 0.00 53 1018.4
20260504004450 52 308 2.6 5.2 0.00 0.00 0.00 50 1018.4
20260504003950 52 356 3.5 10.4 0.00 0.00 0.00 49 1018.3
20260504003449 52 357 5.2 10.4 0.00 0.00 0.00 49 1018.3
20260504002942 51 357 4.3 9.6 0.00 0.00 0.00 51 1018.3
20260504002446 51 359 3.5 7.0 0.00 0.00 0.00 53 1018.2
20260504001944 51 357 4.3 8.7 0.00 0.00 0.00 54 1018.2
20260504001441 51 357 4.3 8.7 0.00 0.00 0.00 54 1018.2
20260504000937 51 357 4.3 7.0 0.00 0.00 0.00 54 1018.1
20260504000433 51 356 3.5 0.0 0.00 0.00 0.00 54 1018.1
20260503235801 51 357 3.5 8.7 0.00 0.00 0.00 55 1018.0
20260503235256 51 357 3.5 7.0 0.00 0.00 0.00 55 1018.0
20260503234757 51 359 3.5 7.8 0.00 0.00 0.00 56 1018.0
20260503234249 51 357 4.3 7.8 0.00 0.00 0.00 56 1018.0
20260503233251 51 357 3.5 7.0 0.00 0.00 0.00 57 1018.0
20260503232748 50 357 2.6 7.0 0.00 0.00 0.00 59 1018.0
20260503232245 50 357 3.5 6.1 0.00 0.00 0.00 60 1018.0
20260503231744 50 359 2.6 6.1 0.00 0.00 0.00 62 1018.0
20260503231237 50 357 3.5 7.0 0.00 0.00 0.00 63 1018.0
20260503230240 49 359 3.5 7.0 0.00 0.00 0.00 64 1018.0
20260503225742 50 357 2.6 6.1 0.00 0.00 0.00 64 1017.9
20260503225238 50 359 2.6 5.2 0.00 0.00 0.00 62 1017.9
20260503224737 51 359 2.6 7.0 0.00 0.00 0.00 61 1017.9
20260503224229 51 357 2.6 7.0 0.00 0.00 0.00 60 1017.7
20260503223730 52 357 1.7 5.2 0.00 0.00 0.00 60 1017.7
20260503223228 52 357 1.7 5.2 0.00 0.00 0.00 60 1017.7
20260503223212 52 356 1.7 5.2 0.00 0.00 0.00 59 1017.7
20260503222227 52 356 1.7 5.2 0.00 0.00 0.00 59 1017.7
20260503221825 52 357 1.7 5.2 0.00 0.00 0.00 60 1017.8
20260503221727 52 357 1.7 5.2 0.00 0.00 0.00 60 1017.7
20260503220713 52 357 0.9 4.3 0.00 0.00 0.00 60 1017.8
20260503220358 52 356 0.9 4.3 0.00 0.00 0.00 63 1017.8
20260503220223 52 357 0.9 4.3 0.00 0.00 0.00 61 1017.8
20260503215220 52 357 0.0 2.6 0.00 0.00 0.00 66 1017.8
20260503214706 52 357 0.9 4.3 0.00 0.00 0.00 69 1017.8
20260503214205 52 357 1.7 4.3 0.00 0.00 0.00 72 1017.7
20260503213703 52 356 1.7 4.3 0.00 0.00 0.00 73 1017.7
20260503213207 52 356 0.9 4.3 0.00 0.00 0.00 73 1017.7
20260503212713 53 356 0.0 2.6 0.00 0.00 0.00 74 1017.8
20260503212217 53 356 0.0 1.7 0.00 0.00 0.00 75 1017.8
20260503211711 53 357 0.0 0.9 0.00 0.00 0.00 75 1017.8
20260503211207 54 357 0.0 0.9 0.00 0.00 0.00 76 1017.6
20260503210659 55 357 1.7 5.2 0.00 0.00 0.00 76 1017.7
20260503210542 57 6 0.0 2.6 0.00 0.00 0.00 76 1017.5
20260503210452 57 335 0.9 7.0 0.00 0.00 0.00 77 1017.5
20260503210157 56 343 1.7 5.2 0.00 0.00 0.00 76 1017.7
20260503205633 57 359 1.7 7.0 0.00 0.00 0.00 77 1017.5
20260503204243 57 301 0.0 4.3 0.00 0.00 0.00 75 1017.5
20260503204120 57 291 0.0 2.6 0.00 0.00 0.00 75 1017.5
20260503203108 57 267 0.9 5.2 0.00 0.00 0.00 73 1017.5
20260503202607 57 323 0.9 8.7 0.00 0.00 0.00 73 1017.4
20260503202109 58 233 1.7 8.7 0.00 0.00 0.00 72 1017.4
20260503201959 58 206 1.7 9.6 0.00 0.00 0.00 68 1017.4
20260503201650 58 267 2.6 7.0 0.00 0.00 0.00 71 1017.4
20260503201126 58 136 3.5 9.6 0.00 0.00 0.00 70 1017.4
20260503200109 58 185 0.0 6.1 0.00 0.00 0.00 65 1017.4
20260503195740 57 133 0.9 4.3 0.00 0.00 0.00 59 1017.3
20260503195603 57 121 0.9 4.3 0.00 0.00 0.00 62 1017.3
20260503194602 56 93 0.9 4.3 0.00 0.00 0.00 57 1017.3
20260503194055 55 171 0.9 4.3 0.00 0.00 0.00 49 1017.0
20260503193606 55 340 1.7 4.3 0.00 0.00 0.00 46 1016.9
20260503193057 55 337 1.7 4.3 0.00 0.00 0.00 46 1016.9
20260503192600 55 347 1.7 4.3 0.00 0.00 0.00 46 1016.9
20260503192056 55 337 1.7 6.1 0.00 0.00 0.00 46 1016.9
20260503191602 55 336 2.6 6.1 0.00 0.00 0.00 46 1016.9
20260503191403 55 328 1.7 2.6 0.00 0.00 0.00 51 1016.7
20260503191254 55 330 0.9 4.3 0.00 0.00 0.00 50 1016.7
20260503191100 55 339 1.7 5.2 0.00 0.00 0.00 47 1016.9
20260503190606 55 328 0.9 5.2 0.00 0.00 0.00 47 1016.9
20260503190157 55 339 0.9 2.6 0.00 0.00 0.00 48 1016.8
20260503185620 55 326 0.9 4.3 0.00 0.00 0.00 49 1016.6
20260503184058 55 323 0.9 2.6 0.00 0.00 0.00 51 1016.5
20260503183605 55 326 0.9 4.3 0.00 0.00 0.00 50 1016.5
20260503183055 56 322 0.9 4.3 0.00 0.00 0.00 50 1016.5
20260503182603 56 329 0.9 4.3 0.00 0.00 0.00 49 1016.5
20260503182106 56 336 0.9 4.3 0.00 0.00 0.00 49 1016.5
20260503181707 56 357 0.9 3.5 0.00 0.00 0.00 50 1016.3
20260503181553 56 344 0.9 2.6 0.00 0.00 0.00 49 1016.5
20260503180547 56 357 0.9 3.5 0.00 0.00 0.00 49 1016.3
20260503180043 57 357 0.9 2.6 0.00 0.00 0.00 47 1016.3
20260503175543 57 280 0.0 1.7 0.00 0.00 0.00 46 1016.1
20260503175054 57 318 0.0 1.7 0.00 0.00 0.00 46 1016.1
20260503174547 57 298 0.9 2.6 0.00 0.00 0.00 47 1016.1
20260503174042 58 295 0.9 3.5 0.00 0.00 0.00 46 1016.0
20260503173537 58 292 0.9 3.5 0.00 0.00 0.00 46 1016.0
20260503173042 59 291 0.9 4.3 0.00 0.00 0.00 46 1016.0
20260503172535 59 289 0.9 4.3 0.00 0.00 0.00 45 1015.9
20260503172035 59 272 0.9 2.6 0.00 0.00 0.00 44 1015.9
20260503171546 60 280 0.9 5.2 0.00 0.00 0.00 44 1015.9
20260503171047 60 294 0.9 5.2 0.00 0.00 0.00 43 1015.8
20260503170458 61 311 0.9 3.5 0.00 0.00 0.00 42 1015.8
20260503150814 63 100 0.9 2.6 0.00 0.00 0.00 35 1015.9
20260503150302 63 113 0.9 2.6 0.00 0.00 0.00 33 1015.9
20260503140251 63 130 0.0 2.6 0.00 0.00 0.00 34 1016.2
20260503131337 62 92 0.9 2.6 0.00 0.00 0.00 37 1016.8
20260503131145 62 95 1.7 5.2 0.00 0.00 0.00 40 1016.7
20260503110733 60 213 0.9 4.3 0.00 0.00 0.00 45 1017.9
20260503110527 60 206 0.9 2.6 0.00 0.00 0.00 43 1017.9
20260503090422 56 352 2.6 6.1 0.00 0.00 0.00 55 1019.0
20260503090341 55 21 4.3 7.0 0.00 0.00 0.00 57 1018.9
20260503081449 54 11 3.5 6.1 0.00 0.00 0.00 61 1019.0
20260503080359 53 17 3.5 7.8 0.00 0.00 0.00 64 1019.0
20260503071504 50 354 4.3 11.3 0.00 0.00 0.00 77 1019.0
20260503071015 50 243 4.3 11.3 0.00 0.00 0.00 79 1019.0
20260503070339 49 357 2.6 8.7 0.00 0.00 0.00 80 1019.0
20260503060323 50 257 1.7 6.1 0.00 0.00 0.00 93 1018.4
20260503054838 49 295 0.9 4.3 0.00 0.00 0.00 94 1018.2
20260503054339 50 301 0.9 3.5 0.00 0.00 0.00 95 1018.0
20260503053845 49 356 0.9 4.3 0.00 0.00 0.00 95 1018.0
20260503053336 49 354 0.9 4.3 0.00 0.00 0.00 95 1018.0
20260503052847 49 354 0.9 4.3 0.00 0.00 0.00 96 1017.8
20260503052314 49 354 0.9 4.3 0.00 0.00 0.00 95 1017.8
20260503051811 49 356 0.0 1.7 0.00 0.00 0.00 96 1017.8
20260503051418 49 353 0.0 0.0 0.00 0.00 0.00 96 1017.7
20260503051307 49 353 0.0 0.0 0.00 0.00 0.00 96 1017.7
20260503050315 48 353 0.0 0.0 0.00 0.00 0.00 95 1017.7
20260503045815 48 352 0.0 0.0 0.00 0.00 0.00 95 1017.6
20260503045301 48 354 0.0 1.7 0.00 0.00 0.00 95 1017.6
20260503044755 48 350 0.9 5.2 0.00 0.00 0.00 95 1017.5
20260503044256 48 353 1.7 5.2 0.00 0.00 0.00 95 1017.4
20260503043826 48 354 1.7 5.2 0.00 0.00 0.00 94 1017.4
20260503043253 48 349 2.6 6.1 0.00 0.00 0.00 94 1017.4
20260503042944 48 354 2.6 6.1 0.00 0.00 0.00 94 1017.4
20260503042755 48 356 2.6 6.1 0.00 0.00 0.00 94 1017.4
20260503041733 48 353 3.5 5.2 0.00 0.00 0.00 94 1017.4
20260503040725 48 356 2.6 6.1 0.00 0.00 0.00 94 1017.2
20260503040217 48 353 1.7 6.1 0.00 0.00 0.00 94 1017.2
20260503035724 48 354 2.6 6.1 0.00 0.00 0.00 94 1017.1
20260503035647 48 354 3.5 7.0 0.00 0.00 0.00 94 1017.1
20260503035450 49 357 0.9 5.2 0.00 0.00 0.00 92 1016.6
20260503035246 48 359 3.5 7.0 0.00 0.00 0.00 94 1017.1
20260503034337 49 354 0.0 0.9 0.00 0.00 0.00 91 1016.5
20260503034217 48 359 3.5 7.0 0.00 0.00 0.00 94 1017.0
20260503033806 48 359 3.5 7.0 0.00 0.00 0.00 93 1017.0
20260503033408 48 359 2.6 7.0 0.00 0.00 0.00 93 1017.0
20260503033005 48 352 2.6 7.0 0.00 0.00 0.00 93 1016.8
20260503032426 48 239 2.6 6.1 0.00 0.00 0.00 93 1016.8
20260503031824 49 246 1.7 6.1 0.00 0.00 0.00 93 1016.8
20260503031248 49 232 0.9 5.2 0.00 0.00 0.00 92 1016.6
20260503030206 49 234 0.9 2.6 0.00 0.00 0.00 92 1016.6
20260503025709 49 356 1.7 4.3 0.00 0.00 0.00 92 1016.8
20260503025224 49 357 2.6 7.0 0.00 0.00 0.00 91 1016.8
20260503024734 49 359 2.6 7.0 0.00 0.00 0.00 91 1016.8
20260503024243 49 264 3.5 7.0 0.00 0.00 0.00 91 1016.8
20260503023743 49 254 4.3 7.0 0.00 0.00 0.00 91 1016.8
20260503023230 49 357 3.5 7.0 0.00 0.00 0.00 91 1016.8
20260503022725 49 356 0.9 7.0 0.00 0.00 0.00 91 1016.5
20260503021656 49 347 0.0 0.9 0.00 0.00 0.00 91 1016.5
20260503021142 49 347 0.0 1.7 0.00 0.00 0.00 91 1016.6
20260503020633 49 346 0.9 2.6 0.00 0.00 0.00 91 1016.6